IBE2335 LEBZ-LEBL

Flight info

Callsign IBE2335
Flight time 1h 8m
Altitude 30000
Route ROLDO DCT RUKER DCT TLD L184 RBO DCT PINAR DCT SEGRE DCT BRITO DCT PISUS DCT PONEN T600 CASPE
Aircraft CRJX/M-SDFGIRWY/S

Departure

Time 2026-05-05 20:52
Airport Badajoz Airport (LEBZ)

Arrival

Time 2026-05-05 22:01
Airport Josep Tarradellas Barcelona-El Prat Airport (LEBL)
Time Latitude Longitude Altitude Speed Heading
2026-05-05 20:36 38.89284 -6.81823 624 ft 0 kts 172°
2026-05-05 20:46 38.89283 -6.81823 615 ft 2 kts 172°
2026-05-05 20:47 38.89278 -6.81822 615 ft 0 kts 172°
2026-05-05 20:47 38.89269 -6.81816 628 ft 1 kts 139°
2026-05-05 20:47 38.89238 -6.81803 620 ft 6 kts 199°
2026-05-05 20:47 38.89211 -6.81839 618 ft 5 kts 248°
2026-05-05 20:48 38.89211 -6.81890 621 ft 7 kts 284°
2026-05-05 20:48 38.89231 -6.81956 622 ft 10 kts 285°
2026-05-05 20:48 38.89242 -6.82039 628 ft 13 kts 283°
2026-05-05 20:48 38.89252 -6.82157 620 ft 15 kts 259°
2026-05-05 20:49 38.89194 -6.82206 616 ft 11 kts 163°
2026-05-05 20:49 38.89120 -6.82103 617 ft 21 kts 127°
2026-05-05 20:49 38.89015 -6.81920 625 ft 27 kts 126°
2026-05-05 20:49 38.88906 -6.81719 619 ft 28 kts 124°
2026-05-05 20:50 38.88796 -6.81508 625 ft 29 kts 124°
2026-05-05 20:50 38.88687 -6.81299 620 ft 27 kts 124°
2026-05-05 20:50 38.88583 -6.81110 621 ft 23 kts 136°
2026-05-05 20:50 38.88469 -6.80991 621 ft 17 kts 122°
2026-05-05 20:51 38.88476 -6.80961 619 ft 4 kts 356°
2026-05-05 20:51 38.88486 -6.80972 630 ft 1 kts 303°
2026-05-05 20:51 38.88492 -6.80984 627 ft 5 kts 299°
2026-05-05 20:51 38.88632 -6.81253 614 ft 75 kts 305°
2026-05-05 20:52 38.89082 -6.82065 623 ft 144 kts 303°
2026-05-05 20:52 38.89714 -6.83242 1014 ft 166 kts 304°
2026-05-05 20:52 38.90475 -6.84455 1733 ft 179 kts 312°
2026-05-05 20:52 38.91273 -6.85677 2656 ft 176 kts 308°
2026-05-05 20:53 38.91984 -6.86951 3512 ft 186 kts 321°
2026-05-05 20:53 38.93264 -6.87443 4099 ft 210 kts
2026-05-05 20:53 38.94750 -6.86999 4695 ft 228 kts 13°
2026-05-05 20:53 38.96214 -6.85975 5286 ft 249 kts 40°
2026-05-05 20:54 38.97428 -6.84361 5959 ft 260 kts 46°
2026-05-05 20:54 38.98603 -6.82584 6775 ft 263 kts 49°
2026-05-05 20:54 38.99773 -6.80756 7556 ft 266 kts 49°
2026-05-05 20:54 39.00821 -6.79137 8261 ft 269 kts 47°
2026-05-05 20:55 39.02087 -6.77298 8861 ft 281 kts 45°
2026-05-05 20:55 39.03419 -6.75441 9654 ft 284 kts 44°
2026-05-05 20:55 39.04765 -6.73554 10388 ft 288 kts 44°
2026-05-05 20:55 39.06132 -6.71636 11088 ft 293 kts 45°
2026-05-05 20:56 39.07516 -6.69678 11764 ft 297 kts 45°
2026-05-05 20:56 39.08921 -6.67687 12462 ft 303 kts 44°
2026-05-05 20:56 39.10349 -6.65668 13159 ft 307 kts 44°
2026-05-05 20:56 39.11801 -6.63614 13850 ft 312 kts 43°
2026-05-05 20:57 39.13273 -6.61535 14477 ft 316 kts 43°
2026-05-05 20:57 39.14762 -6.59427 15092 ft 320 kts 43°
2026-05-05 20:57 39.16268 -6.57292 15708 ft 324 kts 43°
2026-05-05 20:57 39.17792 -6.55124 16345 ft 328 kts 43°
2026-05-05 20:58 39.19341 -6.52938 16929 ft 332 kts 43°
2026-05-05 20:58 39.20900 -6.50722 17510 ft 336 kts 43°
2026-05-05 20:58 39.22476 -6.48482 17827 ft 350 kts 43°
2026-05-05 20:58 39.24161 -6.46092 17889 ft 370 kts 43°
2026-05-05 20:59 39.25932 -6.43569 18008 ft 387 kts 43°
2026-05-05 20:59 39.27769 -6.40946 18335 ft 397 kts 44°
2026-05-05 20:59 39.29631 -6.38282 18794 ft 401 kts 44°
2026-05-05 20:59 39.31509 -6.35602 19249 ft 404 kts 44°
2026-05-05 21:00 39.33400 -6.32897 19708 ft 407 kts 44°
2026-05-05 21:00 39.35306 -6.30168 20154 ft 410 kts 44°
2026-05-05 21:00 39.37231 -6.27417 20588 ft 413 kts 44°
2026-05-05 21:00 39.39164 -6.24648 21013 ft 417 kts 44°
2026-05-05 21:01 39.41110 -6.21855 21423 ft 419 kts 44°
2026-05-05 21:01 39.43069 -6.19040 21843 ft 422 kts 44°
2026-05-05 21:01 39.45019 -6.16248 22235 ft 425 kts 44°
2026-05-05 21:01 39.47002 -6.13391 22616 ft 428 kts 44°
2026-05-05 21:02 39.49002 -6.10514 22993 ft 431 kts 44°
2026-05-05 21:02 39.51012 -6.07616 23334 ft 434 kts 44°
2026-05-05 21:02 39.53038 -6.04697 23665 ft 437 kts 44°
2026-05-05 21:02 39.55076 -6.01758 23963 ft 440 kts 44°
2026-05-05 21:03 39.57122 -5.98797 24257 ft 442 kts 44°
2026-05-05 21:03 39.59181 -5.95820 24541 ft 444 kts 44°
2026-05-05 21:03 39.61251 -5.92823 24818 ft 446 kts 44°
2026-05-05 21:03 39.63325 -5.89814 25089 ft 448 kts 44°
2026-05-05 21:04 39.65409 -5.86795 25352 ft 451 kts 44°
2026-05-05 21:04 39.67504 -5.83749 25648 ft 453 kts 44°
2026-05-05 21:04 39.69609 -5.80699 25900 ft 455 kts 44°
2026-05-05 21:04 39.71718 -5.77618 26147 ft 457 kts 44°
2026-05-05 21:05 39.73688 -5.74336 26394 ft 463 kts 52°
2026-05-05 21:05 39.75362 -5.70739 26620 ft 467 kts 57°
2026-05-05 21:05 39.76939 -5.67073 26797 ft 470 kts 57°
2026-05-05 21:05 39.78554 -5.63363 27023 ft 472 kts 56°
2026-05-05 21:06 39.80239 -5.59702 27247 ft 473 kts 55°
2026-05-05 21:06 39.81955 -5.56043 27467 ft 474 kts 55°
2026-05-05 21:06 39.83656 -5.52374 27666 ft 476 kts 56°
2026-05-05 21:06 39.85366 -5.48668 27880 ft 478 kts 56°
2026-05-05 21:07 39.87086 -5.44956 28082 ft 480 kts 56°
2026-05-05 21:07 39.88808 -5.41224 28282 ft 481 kts 56°
2026-05-05 21:07 39.90534 -5.37478 28477 ft 483 kts 56°
2026-05-05 21:07 39.92267 -5.33723 28723 ft 484 kts 56°
2026-05-05 21:08 39.94000 -5.29956 28879 ft 486 kts 56°
2026-05-05 21:08 39.95740 -5.26170 29065 ft 488 kts 56°
2026-05-05 21:08 39.96896 -5.23657 29170 ft 488 kts 56°
2026-05-05 21:08 39.99232 -5.18571 29383 ft 490 kts 56°
2026-05-05 21:09 40.00392 -5.16038 29489 ft 491 kts 56°
2026-05-05 21:09 40.01929 -5.12674 29620 ft 492 kts 56°
2026-05-05 21:09 40.03688 -5.08828 29791 ft 493 kts 56°
2026-05-05 21:10 40.06302 -5.03098 29953 ft 497 kts 56°
2026-05-05 21:10 40.09864 -4.95286 30008 ft 504 kts 56°
2026-05-05 21:11 40.13442 -4.87402 30012 ft 511 kts 56°
2026-05-05 21:11 40.17082 -4.79378 30031 ft 518 kts 56°
2026-05-05 21:12 40.20769 -4.71220 30017 ft 523 kts 56°
2026-05-05 21:12 40.24480 -4.62984 30012 ft 527 kts 56°
2026-05-05 21:13 40.28183 -4.54750 30009 ft 523 kts 56°
2026-05-05 21:13 40.31857 -4.46553 30005 ft 520 kts 56°
2026-05-05 21:14 40.35513 -4.38381 29999 ft 518 kts 56°
2026-05-05 21:14 40.39148 -4.30233 30003 ft 517 kts 57°
2026-05-05 21:15 40.42781 -4.22088 30008 ft 517 kts 56°
2026-05-05 21:15 40.46363 -4.13994 30003 ft 516 kts 56°
2026-05-05 21:16 40.49969 -4.05852 30008 ft 515 kts 56°
2026-05-05 21:16 40.53562 -3.97710 30004 ft 514 kts 56°
2026-05-05 21:17 40.57140 -3.89585 29997 ft 513 kts 56°
2026-05-05 21:17 40.60691 -3.81485 30016 ft 512 kts 56°
2026-05-05 21:18 40.64250 -3.73365 29998 ft 512 kts 56°
2026-05-05 21:18 40.67772 -3.65298 29990 ft 512 kts 56°
2026-05-05 21:19 40.71336 -3.57110 29999 ft 511 kts 56°
2026-05-05 21:19 40.74849 -3.49022 30004 ft 511 kts 56°
2026-05-05 21:20 40.78383 -3.40866 30013 ft 512 kts 56°
2026-05-05 21:20 40.81914 -3.32699 30012 ft 512 kts 57°
2026-05-05 21:21 40.85294 -3.24401 30008 ft 516 kts 65°
2026-05-05 21:21 40.87416 -3.15320 30035 ft 519 kts 75°
2026-05-05 21:22 40.89025 -3.06061 30022 ft 520 kts 74°
2026-05-05 21:22 40.90862 -2.96816 30016 ft 520 kts 73°
2026-05-05 21:23 40.92661 -2.87546 30023 ft 521 kts 73°
2026-05-05 21:23 40.94466 -2.78254 30016 ft 522 kts 74°
2026-05-05 21:24 40.96257 -2.68998 30019 ft 522 kts 74°
2026-05-05 21:24 40.98052 -2.59665 30018 ft 523 kts 74°
2026-05-05 21:25 40.99840 -2.50324 30020 ft 523 kts 74°
2026-05-05 21:25 41.01621 -2.40967 30019 ft 524 kts 74°
2026-05-05 21:26 41.03398 -2.31603 30022 ft 524 kts 74°
2026-05-05 21:26 41.05159 -2.22293 30020 ft 525 kts 75°
2026-05-05 21:27 41.06912 -2.12969 30013 ft 525 kts 75°
2026-05-05 21:27 41.08457 -2.04723 30012 ft 525 kts 75°
2026-05-05 21:28 41.09820 -1.97396 30015 ft 526 kts 75°
2026-05-05 21:28 41.11565 -1.87977 30016 ft 526 kts 75°
2026-05-05 21:29 41.13307 -1.78525 30017 ft 528 kts 75°
2026-05-05 21:29 41.15047 -1.69053 30013 ft 529 kts 75°
2026-05-05 21:30 41.16779 -1.59564 30012 ft 529 kts 75°
2026-05-05 21:30 41.18496 -1.50117 30003 ft 530 kts 75°
2026-05-05 21:31 41.20220 -1.40590 30010 ft 531 kts 76°
2026-05-05 21:31 41.21938 -1.31032 30018 ft 531 kts 75°
2026-05-05 21:32 41.23652 -1.21479 30018 ft 532 kts 76°
2026-05-05 21:32 41.25358 -1.11902 30010 ft 533 kts 76°
2026-05-05 21:33 41.27054 -1.02315 30002 ft 534 kts 76°
2026-05-05 21:33 41.28749 -0.92701 29999 ft 534 kts 76°
2026-05-05 21:34 41.30427 -0.83142 29993 ft 534 kts 76°
2026-05-05 21:34 41.31797 -0.75294 29976 ft 534 kts 76°
2026-05-05 21:35 41.33453 -0.65763 29983 ft 535 kts 77°
2026-05-05 21:35 41.35117 -0.56112 30021 ft 536 kts 76°
2026-05-05 21:36 41.36782 -0.46425 29990 ft 537 kts 76°
2026-05-05 21:36 41.38453 -0.36713 29981 ft 538 kts 77°
2026-05-05 21:37 41.40115 -0.27023 29972 ft 539 kts 77°
2026-05-05 21:37 41.41698 -0.17331 29959 ft 539 kts 84°
2026-05-05 21:38 41.42090 -0.07387 29987 ft 538 kts 85°
2026-05-05 21:38 41.42855 0.02538 29975 ft 538 kts 84°
2026-05-05 21:39 41.43402 0.12476 29984 ft 538 kts 89°
2026-05-05 21:39 41.43771 0.22451 29970 ft 539 kts 87°
2026-05-05 21:40 41.44337 0.32418 29955 ft 540 kts 87°
2026-05-05 21:40 41.44878 0.42390 29958 ft 540 kts 88°
2026-05-05 21:41 41.45364 0.52318 29929 ft 541 kts 88°
2026-05-05 21:41 41.45609 0.57341 29745 ft 545 kts 88°
2026-05-05 21:41 41.45854 0.62407 29611 ft 547 kts 88°
2026-05-05 21:42 41.46095 0.67472 29481 ft 550 kts 88°
2026-05-05 21:42 41.46337 0.72579 29353 ft 552 kts 88°
2026-05-05 21:42 41.46579 0.77685 29214 ft 553 kts 88°
2026-05-05 21:42 41.46808 0.82829 29085 ft 554 kts 88°
2026-05-05 21:43 41.47042 0.87874 28938 ft 531 kts 88°
2026-05-05 21:43 41.47263 0.92676 28770 ft 507 kts 89°
2026-05-05 21:43 41.47469 0.97319 28606 ft 501 kts 89°
2026-05-05 21:43 41.47672 1.01912 28466 ft 503 kts 89°
2026-05-05 21:44 41.47882 1.06615 28330 ft 500 kts 89°
2026-05-05 21:44 41.48083 1.11235 28195 ft 498 kts 89°
2026-05-05 21:44 41.48283 1.15785 27834 ft 501 kts 89°
2026-05-05 21:44 41.48478 1.20468 27227 ft 510 kts 89°
2026-05-05 21:45 41.48681 1.25237 26608 ft 516 kts 89°
2026-05-05 21:45 41.48885 1.29941 25992 ft 502 kts 89°
2026-05-05 21:45 41.49075 1.34533 25382 ft 490 kts 89°
2026-05-05 21:45 41.49261 1.39022 24779 ft 480 kts 89°
2026-05-05 21:46 41.49442 1.43429 24193 ft 471 kts 90°
2026-05-05 21:46 41.49620 1.47754 23611 ft 463 kts 89°
2026-05-05 21:46 41.49790 1.52001 22919 ft 454 kts 89°
2026-05-05 21:46 41.49958 1.56178 22210 ft 447 kts 90°
2026-05-05 21:47 41.50116 1.60285 21547 ft 440 kts 90°
2026-05-05 21:47 41.50280 1.64335 20898 ft 433 kts 89°
2026-05-05 21:47 41.50439 1.68324 20266 ft 427 kts 89°
2026-05-05 21:47 41.50594 1.72246 19643 ft 420 kts 89°
2026-05-05 21:48 41.50738 1.76109 19042 ft 414 kts 89°
2026-05-05 21:48 41.50884 1.79917 18442 ft 407 kts 89°
2026-05-05 21:48 41.51028 1.83664 17794 ft 401 kts 88°
2026-05-05 21:48 41.51168 1.87352 17115 ft 396 kts 88°
2026-05-05 21:49 41.51295 1.90798 16475 ft 391 kts 88°
2026-05-05 21:49 41.51431 1.94516 15835 ft 412 kts 89°
2026-05-05 21:49 41.51567 1.98427 15231 ft 432 kts 89°
2026-05-05 21:49 41.51712 2.02430 14623 ft 419 kts 88°
2026-05-05 21:50 41.51856 2.06195 14011 ft 394 kts 88°
2026-05-05 21:50 41.51981 2.09752 13353 ft 374 kts 88°
2026-05-05 21:50 41.52085 2.13149 12673 ft 359 kts 89°
2026-05-05 21:50 41.52173 2.16432 12003 ft 348 kts 89°
2026-05-05 21:51 41.52262 2.19608 11349 ft 338 kts 89°
2026-05-05 21:51 41.52214 2.22693 10710 ft 328 kts 97°
2026-05-05 21:51 41.52073 2.25701 10098 ft 322 kts 91°
2026-05-05 21:51 41.52059 2.28665 9454 ft 316 kts 90°
2026-05-05 21:52 41.52078 2.34391 8155 ft 306 kts 90°
2026-05-05 21:52 41.52095 2.37206 7518 ft 301 kts 90°
2026-05-05 21:52 41.52113 2.39946 7116 ft 289 kts 90°
2026-05-05 21:53 41.52105 2.42576 6749 ft 277 kts 96°
2026-05-05 21:53 41.51458 2.44890 6355 ft 262 kts 131°
2026-05-05 21:53 41.50038 2.46228 5979 ft 244 kts 168°
2026-05-05 21:53 41.48425 2.46223 5635 ft 227 kts 198°
2026-05-05 21:54 41.46950 2.45588 5292 ft 218 kts 209°
2026-05-05 21:54 41.45627 2.44661 4944 ft 213 kts 214°
2026-05-05 21:54 41.44399 2.43582 4619 ft 212 kts 219°
2026-05-05 21:54 41.43206 2.42413 4267 ft 214 kts 221°
2026-05-05 21:55 41.42082 2.41146 3927 ft 215 kts 224°
2026-05-05 21:55 41.40962 2.39816 3586 ft 217 kts 224°
2026-05-05 21:55 41.39821 2.38497 3259 ft 213 kts 224°
2026-05-05 21:55 41.38777 2.37279 2975 ft 187 kts 229°
2026-05-05 21:56 41.38193 2.35875 2654 ft 164 kts 247°
2026-05-05 21:56 41.37638 2.34562 2515 ft 159 kts 240°
2026-05-05 21:56 41.37022 2.33351 2439 ft 164 kts 239°
2026-05-05 21:56 41.36406 2.32011 2385 ft 175 kts 245°
2026-05-05 21:57 41.35878 2.30509 2379 ft 180 kts 248°
2026-05-05 21:57 41.35363 2.28993 2474 ft 179 kts 248°
2026-05-05 21:57 41.34846 2.27558 2761 ft 169 kts 249°
2026-05-05 21:57 41.34356 2.26101 2766 ft 175 kts 250°
2026-05-05 21:58 41.33868 2.24595 2768 ft 179 kts 251°
2026-05-05 21:58 41.33409 2.23046 2708 ft 185 kts 252°
2026-05-05 21:58 41.32912 2.21433 2528 ft 194 kts 250°
2026-05-05 21:58 41.32374 2.19735 2166 ft 200 kts 249°
2026-05-05 21:59 41.31838 2.18136 1479 ft 184 kts 248°
2026-05-05 21:59 41.31362 2.16658 1049 ft 164 kts 250°
2026-05-05 21:59 41.30926 2.15334 700 ft 149 kts 247°
2026-05-05 21:59 41.30460 2.13999 585 ft 166 kts 249°
2026-05-05 22:00 41.30139 2.13041 485 ft 175 kts 249°
2026-05-05 22:00 41.29660 2.11620 275 ft 159 kts 246°
2026-05-05 22:00 41.29228 2.10367 49 ft 139 kts 247°
2026-05-05 22:00 41.28875 2.09336 16 ft 103 kts 245°
2026-05-05 22:01 41.28668 2.08710 21 ft 37 kts 255°
2026-05-05 22:01 41.28657 2.08436 16 ft 8 kts 274°
2026-05-05 22:01 41.28658 2.08408 16 ft 2 kts 276°
2026-05-05 22:01 41.28659 2.08403 15 ft 0 kts 276°
2026-05-05 22:02 41.28659 2.08401 15 ft 0 kts 276°
2026-05-05 22:02 41.28660 2.08389 15 ft 3 kts 276°
2026-05-05 22:02 41.28664 2.08342 14 ft 7 kts 279°
2026-05-05 22:03 41.28687 2.08262 15 ft 11 kts 313°
2026-05-05 22:03 41.28772 2.08222 14 ft 12 kts 342°
2026-05-05 22:03 41.28837 2.08184 16 ft 9 kts 335°
2026-05-05 22:03 41.28903 2.08146 19 ft 11 kts 336°
2026-05-05 22:04 41.28947 2.08074 17 ft 12 kts 259°
2026-05-05 22:04 41.28897 2.08004 17 ft 9 kts 172°
2026-05-05 22:04 41.28872 2.08026 18 ft 3 kts 107°
2026-05-05 22:04 41.28880 2.08075 17 ft 8 kts 67°
2026-05-05 22:05 41.28882 2.08081 17 ft 2 kts 66°
2026-05-05 22:05 41.28897 2.08126 18 ft 7 kts 65°
2026-05-05 22:05 41.28898 2.08128 18 ft 0 kts 65°